Location: Bottens
(46.6171°N, 6.6605°E)
Time: 17:03:57
(UTC+00:00)

USA 267 - Pass Details

Date: 20 June 2021
Orbit: 1102 x 1106 km, 123.0° (Epoch: 03 August)

Event Time Altitude Azimuth Distance (km) Brightness Sun altitude
Exits shadow 01:19:19 22° 220° (SW) 2,203 4.3 -16.1°
Maximum altitude 01:20:28 23° 236° (SW) 2,152 4.3 -16.0°
Drops below altitude 10° 01:25:28 10° 286° (WNW) 2,963 5.4 -15.6°
Sets 01:28:35 0° 300° (WNW) 3,926 6.2 -15.4°
